| time (UTC) | temp F | wind direction | speed MPH | gust MPH | rain 1hr in | rain 24hr in | rain mn in | humidity % | barometer mb |
| 20260904184003 | 91 | 126 | 1.0 | 3.0 | 0.00 | 0.00 | 0.00 | 22 | 1008.4 |
| 20260904183503 | 91 | 190 | 5.0 | 6.0 | 0.00 | 0.00 | 0.00 | 23 | 1008.4 |
| 20260904182503 | 90 | 99 | 1.0 | 3.0 | 0.00 | 0.00 | 0.00 | 23 | 1008.5 |
| 20260904182003 | 90 | 200 | 4.0 | 7.0 | 0.00 | 0.00 | 0.00 | 23 | 1008.5 |
| 20260904181503 | 89 | 146 | 1.0 | 5.0 | 0.00 | 0.00 | 0.00 | 23 | 1008.5 |
| 20260904181003 | 89 | 152 | 3.0 | 7.0 | 0.00 | 0.00 | 0.00 | 22 | 1008.5 |
| 20260904180503 | 89 | 194 | 2.0 | 3.0 | 0.00 | 0.00 | 0.00 | 25 | 1008.5 |
| 20260904180002 | 89 | 99 | 3.0 | 6.0 | 0.00 | 0.00 | 0.00 | 24 | 1008.5 |
| 20260904175504 | 89 | 100 | 2.0 | 5.0 | 0.00 | 0.00 | 0.00 | 24 | 1008.5 |
| 20260904175003 | 89 | 192 | 3.0 | 7.0 | 0.00 | 0.00 | 0.00 | 24 | 1008.5 |
| 20260904174502 | 89 | 223 | 3.0 | 8.0 | 0.00 | 0.00 | 0.00 | 24 | 1008.5 |
| 20260904174003 | 89 | 149 | 3.0 | 6.0 | 0.00 | 0.00 | 0.00 | 25 | 1008.5 |
| 20260904173504 | 89 | 118 | 5.0 | 7.0 | 0.00 | 0.00 | 0.00 | 26 | 1008.5 |
| 20260904173003 | 88 | 198 | 3.0 | 6.0 | 0.00 | 0.00 | 0.00 | 24 | 1008.5 |
| 20260904172502 | 88 | 152 | 2.0 | 6.0 | 0.00 | 0.00 | 0.00 | 27 | 1008.5 |
| 20260904172002 | 87 | 184 | 1.0 | 6.0 | 0.00 | 0.00 | 0.00 | 26 | 1008.5 |
| 20260904171503 | 87 | 207 | 2.0 | 5.0 | 0.00 | 0.00 | 0.00 | 27 | 1008.5 |
| 20260904171003 | 87 | 200 | 2.0 | 3.0 | 0.00 | 0.00 | 0.00 | 27 | 1008.5 |
| 20260904165503 | 86 | 168 | 0.0 | 3.0 | 0.00 | 0.00 | 0.00 | 29 | 1008.5 |
| 20260904165004 | 85 | 183 | 1.0 | 5.0 | 0.00 | 0.00 | 0.00 | 29 | 1008.5 |
| 20260904164503 | 85 | 194 | 3.0 | 7.0 | 0.00 | 0.00 | 0.00 | 31 | 1008.5 |
| 20260904164003 | 85 | 214 | 3.0 | 6.0 | 0.00 | 0.00 | 0.00 | 29 | 1008.5 |
| 20260904163503 | 85 | 219 | 3.0 | 7.0 | 0.00 | 0.00 | 0.00 | 29 | 1008.4 |
| 20260904163003 | 85 | 198 | 3.0 | 5.0 | 0.00 | 0.00 | 0.00 | 29 | 1008.4 |
| 20260904162503 | 85 | 212 | 4.0 | 6.0 | 0.00 | 0.00 | 0.00 | 30 | 1008.2 |
| 20260904162003 | 85 | 218 | 5.0 | 9.0 | 0.00 | 0.00 | 0.00 | 30 | 1008.1 |
| 20260904161503 | 85 | 216 | 5.0 | 8.0 | 0.00 | 0.00 | 0.00 | 28 | 1008.0 |
| 20260904161002 | 85 | 252 | 3.0 | 10.0 | 0.00 | 0.00 | 0.00 | 28 | 1008.0 |
| 20260904160502 | 85 | 252 | 4.0 | 8.0 | 0.00 | 0.00 | 0.00 | 27 | 1007.9 |
| 20260904160003 | 85 | 271 | 4.0 | 10.0 | 0.00 | 0.00 | 0.00 | 27 | 1007.9 |
| 20260904155503 | 85 | 273 | 3.0 | 7.0 | 0.00 | 0.00 | 0.00 | 26 | 1007.8 |
| 20260904155002 | 84 | 283 | 3.0 | 9.0 | 0.00 | 0.00 | 0.00 | 26 | 1007.7 |
| 20260904154503 | 84 | 282 | 5.0 | 12.0 | 0.00 | 0.00 | 0.00 | 26 | 1007.7 |
| 20260904154002 | 84 | 276 | 6.0 | 10.0 | 0.00 | 0.00 | 0.00 | 26 | 1007.7 |
| 20260904153503 | 83 | 273 | 6.0 | 10.0 | 0.00 | 0.00 | 0.00 | 26 | 1007.7 |
| 20260904153003 | 83 | 284 | 5.0 | 12.0 | 0.00 | 0.00 | 0.00 | 26 | 1007.6 |
| 20260904152502 | 83 | 283 | 5.0 | 10.0 | 0.00 | 0.00 | 0.00 | 26 | 1007.5 |
| 20260904152002 | 83 | 276 | 6.0 | 12.0 | 0.00 | 0.00 | 0.00 | 26 | 1007.5 |
| 20260904151503 | 82 | 287 | 5.0 | 12.0 | 0.00 | 0.00 | 0.00 | 26 | 1007.5 |
| 20260904151002 | 82 | 282 | 6.0 | 14.0 | 0.00 | 0.00 | 0.00 | 26 | 1007.5 |
| 20260904150502 | 82 | 284 | 6.0 | 13.0 | 0.00 | 0.00 | 0.00 | 26 | 1007.4 |
| 20260904150003 | 81 | 297 | 6.0 | 12.0 | 0.00 | 0.00 | 0.00 | 26 | 1007.4 |
| 20260904145503 | 81 | 305 | 5.0 | 12.0 | 0.00 | 0.00 | 0.00 | 26 | 1007.4 |
| 20260904145003 | 81 | 266 | 5.0 | 13.0 | 0.00 | 0.00 | 0.00 | 26 | 1007.4 |
| 20260904144503 | 80 | 274 | 6.0 | 16.0 | 0.00 | 0.00 | 0.00 | 26 | 1007.3 |
| 20260904144003 | 80 | 290 | 6.0 | 13.0 | 0.00 | 0.00 | 0.00 | 26 | 1007.2 |
| 20260904143502 | 79 | 293 | 5.0 | 12.0 | 0.00 | 0.00 | 0.00 | 26 | 1007.2 |
| 20260904143003 | 79 | 295 | 5.0 | 14.0 | 0.00 | 0.00 | 0.00 | 27 | 1007.0 |
| 20260904142503 | 79 | 300 | 7.0 | 14.0 | 0.00 | 0.00 | 0.00 | 27 | 1006.9 |
| 20260904142003 | 79 | 284 | 6.0 | 14.0 | 0.00 | 0.00 | 0.00 | 27 | 1006.9 |
| 20260904141503 | 79 | 291 | 7.0 | 12.0 | 0.00 | 0.00 | 0.00 | 27 | 1006.9 |
| 20260904141003 | 78 | 284 | 5.0 | 14.0 | 0.00 | 0.00 | 0.00 | 27 | 1006.8 |
| 20260904140502 | 78 | 299 | 5.0 | 15.0 | 0.00 | 0.00 | 0.00 | 27 | 1006.6 |
| 20260904135502 | 78 | 285 | 7.0 | 15.0 | 0.00 | 0.00 | 0.00 | 27 | 1006.5 |
| 20260904135003 | 78 | 289 | 6.0 | 12.0 | 0.00 | 0.00 | 0.00 | 26 | 1006.4 |
| 20260904134502 | 78 | 279 | 5.0 | 12.0 | 0.00 | 0.00 | 0.00 | 26 | 1006.4 |
| 20260904134003 | 78 | 291 | 7.0 | 14.0 | 0.00 | 0.00 | 0.00 | 26 | 1006.4 |
| 20260904133503 | 78 | 290 | 5.0 | 15.0 | 0.00 | 0.00 | 0.00 | 26 | 1006.2 |
| 20260904133003 | 78 | 280 | 10.0 | 16.0 | 0.00 | 0.00 | 0.00 | 25 | 1006.1 |
| 20260904132503 | 78 | 288 | 11.0 | 18.0 | 0.00 | 0.00 | 0.00 | 25 | 1006.1 |
| 20260904132003 | 78 | 298 | 6.0 | 16.0 | 0.00 | 0.00 | 0.00 | 25 | 1006.0 |
| 20260904131503 | 78 | 288 | 9.0 | 18.0 | 0.00 | 0.00 | 0.00 | 25 | 1005.9 |
| 20260904130503 | 79 | 302 | 8.0 | 17.0 | 0.00 | 0.00 | 0.00 | 25 | 1005.8 |
| 20260904130002 | 78 | 293 | 7.0 | 15.0 | 0.00 | 0.00 | 0.00 | 25 | 1005.8 |
| 20260904125503 | 78 | 296 | 7.0 | 16.0 | 0.00 | 0.00 | 0.00 | 25 | 1005.8 |
| 20260904125003 | 79 | 279 | 9.0 | 17.0 | 0.00 | 0.00 | 0.00 | 25 | 1005.8 |
| 20260904124503 | 79 | 305 | 9.0 | 16.0 | 0.00 | 0.00 | 0.00 | 26 | 1005.5 |
| 20260904124002 | 79 | 285 | 9.0 | 18.0 | 0.00 | 0.00 | 0.00 | 26 | 1005.5 |
| 20260904123503 | 79 | 282 | 8.0 | 16.0 | 0.00 | 0.00 | 0.00 | 27 | 1005.4 |
| 20260904123003 | 79 | 283 | 9.0 | 16.0 | 0.00 | 0.00 | 0.00 | 27 | 1005.4 |
| 20260904122503 | 79 | 290 | 12.0 | 16.0 | 0.00 | 0.00 | 0.00 | 28 | 1005.4 |
| 20260904121502 | 79 | 272 | 7.0 | 15.0 | 0.00 | 0.00 | 0.00 | 29 | 1005.4 |
| 20260904121002 | 79 | 291 | 8.0 | 15.0 | 0.00 | 0.00 | 0.00 | 29 | 1005.4 |
| 20260904120502 | 79 | 293 | 9.0 | 17.0 | 0.00 | 0.00 | 0.00 | 30 | 1005.4 |
| 20260904115003 | 79 | 296 | 7.0 | 20.0 | 0.00 | 0.00 | 0.00 | 30 | 1005.3 |
| 20260904114503 | 79 | 283 | 6.0 | 21.0 | 0.00 | 0.00 | 0.00 | 30 | 1005.3 |
| 20260904114002 | 79 | 305 | 7.0 | 13.0 | 0.00 | 0.00 | 0.00 | 30 | 1005.3 |
| 20260904113504 | 79 | 284 | 9.0 | 16.0 | 0.00 | 0.00 | 0.00 | 30 | 1005.3 |
| 20260904113002 | 79 | 286 | 8.0 | 15.0 | 0.00 | 0.00 | 0.00 | 30 | 1005.3 |
| 20260904112503 | 79 | 282 | 9.0 | 17.0 | 0.00 | 0.00 | 0.00 | 30 | 1005.3 |
| 20260904112002 | 79 | 286 | 7.0 | 17.0 | 0.00 | 0.00 | 0.00 | 30 | 1005.2 |
| 20260904111503 | 79 | 304 | 7.0 | 16.0 | 0.00 | 0.00 | 0.00 | 30 | 1005.3 |
| 20260904111003 | 79 | 309 | 7.0 | 16.0 | 0.00 | 0.00 | 0.00 | 30 | 1005.1 |
| 20260904110002 | 79 | 303 | 6.0 | 15.0 | 0.00 | 0.00 | 0.00 | 29 | 1004.8 |
| 20260904105503 | 79 | 296 | 8.0 | 14.0 | 0.00 | 0.00 | 0.00 | 29 | 1004.9 |
| 20260904105002 | 79 | 301 | 7.0 | 14.0 | 0.00 | 0.00 | 0.00 | 28 | 1004.9 |
| 20260904104502 | 79 | 299 | 6.0 | 15.0 | 0.00 | 0.00 | 0.00 | 28 | 1004.9 |
| 20260904104002 | 79 | 296 | 7.0 | 15.0 | 0.00 | 0.00 | 0.00 | 28 | 1004.8 |
| 20260904103503 | 79 | 297 | 5.0 | 14.0 | 0.00 | 0.00 | 0.00 | 27 | 1004.8 |
| 20260904103003 | 79 | 298 | 7.0 | 14.0 | 0.00 | 0.00 | 0.00 | 28 | 1004.8 |
| 20260904101503 | 79 | 310 | 7.0 | 13.0 | 0.00 | 0.00 | 0.00 | 28 | 1004.8 |
| 20260904101003 | 79 | 305 | 6.0 | 15.0 | 0.00 | 0.00 | 0.00 | 28 | 1004.8 |
| 20260904100003 | 79 | 314 | 6.0 | 13.0 | 0.00 | 0.00 | 0.00 | 29 | 1004.8 |
| 20260904095502 | 79 | 302 | 6.0 | 12.0 | 0.00 | 0.00 | 0.00 | 29 | 1004.8 |
| 20260904095003 | 79 | 295 | 7.0 | 16.0 | 0.00 | 0.00 | 0.00 | 29 | 1004.8 |
| 20260904094502 | 79 | 286 | 9.0 | 16.0 | 0.00 | 0.00 | 0.00 | 30 | 1004.8 |
| 20260904094003 | 79 | 291 | 8.0 | 14.0 | 0.00 | 0.00 | 0.00 | 30 | 1004.8 |
| 20260904093503 | 79 | 287 | 6.0 | 16.0 | 0.00 | 0.00 | 0.00 | 31 | 1004.8 |
| 20260904093003 | 79 | 288 | 7.0 | 13.0 | 0.00 | 0.00 | 0.00 | 32 | 1004.8 |
| 20260904092503 | 79 | 301 | 7.0 | 12.0 | 0.00 | 0.00 | 0.00 | 33 | 1004.9 |
| 20260904091003 | 79 | 293 | 7.0 | 15.0 | 0.00 | 0.00 | 0.00 | 35 | 1004.9 |
| 20260904090502 | 79 | 297 | 6.0 | 12.0 | 0.00 | 0.00 | 0.00 | 35 | 1004.9 |
| 20260904085503 | 79 | 301 | 6.0 | 12.0 | 0.00 | 0.00 | 0.00 | 35 | 1005.1 |
| 20260904085002 | 79 | 283 | 7.0 | 15.0 | 0.00 | 0.00 | 0.00 | 36 | 1005.2 |
| 20260904084003 | 79 | 283 | 5.0 | 10.0 | 0.00 | 0.00 | 0.00 | 36 | 1005.3 |
| 20260904083503 | 79 | 275 | 6.0 | 13.0 | 0.00 | 0.00 | 0.00 | 36 | 1005.3 |
| 20260904083002 | 78 | 312 | 7.0 | 17.0 | 0.00 | 0.00 | 0.00 | 37 | 1005.3 |
| 20260904082503 | 78 | 300 | 6.0 | 13.0 | 0.00 | 0.00 | 0.00 | 37 | 1005.3 |
| 20260904082003 | 78 | 306 | 9.0 | 15.0 | 0.00 | 0.00 | 0.00 | 36 | 1005.3 |
| 20260904081503 | 78 | 276 | 9.0 | 20.0 | 0.00 | 0.00 | 0.00 | 36 | 1005.4 |
| 20260904081002 | 79 | 298 | 6.0 | 15.0 | 0.00 | 0.00 | 0.00 | 36 | 1005.4 |
| 20260904080502 | 79 | 289 | 7.0 | 12.0 | 0.00 | 0.00 | 0.00 | 36 | 1005.5 |
| 20260904080002 | 79 | 297 | 7.0 | 16.0 | 0.00 | 0.00 | 0.00 | 36 | 1005.5 |
| 20260904075504 | 79 | 295 | 9.0 | 17.0 | 0.00 | 0.00 | 0.00 | 36 | 1005.4 |
| 20260904075003 | 78 | 300 | 8.0 | 18.0 | 0.00 | 0.00 | 0.00 | 36 | 1005.4 |
| 20260904074502 | 78 | 294 | 5.0 | 15.0 | 0.00 | 0.00 | 0.00 | 35 | 1005.4 |
| 20260904074003 | 79 | 284 | 9.0 | 18.0 | 0.00 | 0.00 | 0.00 | 35 | 1005.4 |
| 20260904073503 | 79 | 301 | 8.0 | 16.0 | 0.00 | 0.00 | 0.00 | 35 | 1005.4 |
| 20260904073004 | 79 | 293 | 9.0 | 17.0 | 0.00 | 0.00 | 0.00 | 35 | 1005.4 |
| 20260904072504 | 79 | 287 | 7.0 | 18.0 | 0.00 | 0.00 | 0.00 | 35 | 1005.4 |
| 20260904072003 | 79 | 293 | 9.0 | 17.0 | 0.00 | 0.00 | 0.00 | 35 | 1005.4 |
| 20260904071503 | 79 | 313 | 8.0 | 14.0 | 0.00 | 0.00 | 0.00 | 34 | 1005.3 |
| 20260904071002 | 79 | 297 | 9.0 | 16.0 | 0.00 | 0.00 | 0.00 | 34 | 1005.3 |
| 20260904070003 | 79 | 301 | 7.0 | 15.0 | 0.00 | 0.00 | 0.00 | 35 | 1005.2 |
| 20260904065003 | 79 | 302 | 6.0 | 14.0 | 0.00 | 0.00 | 0.00 | 36 | 1005.2 |
| 20260904064503 | 79 | 310 | 7.0 | 20.0 | 0.00 | 0.00 | 0.00 | 37 | 1005.1 |
| 20260904064003 | 79 | 302 | 7.0 | 15.0 | 0.00 | 0.00 | 0.00 | 37 | 1005.0 |
| 20260904063503 | 79 | 302 | 9.0 | 17.0 | 0.00 | 0.00 | 0.00 | 37 | 1004.9 |
| 20260904063004 | 79 | 306 | 9.0 | 17.0 | 0.00 | 0.00 | 0.00 | 37 | 1004.9 |
| 20260904062502 | 79 | 312 | 6.0 | 17.0 | 0.00 | 0.00 | 0.00 | 37 | 1004.9 |
| 20260904062003 | 79 | 300 | 8.0 | 17.0 | 0.00 | 0.00 | 0.00 | 37 | 1004.9 |
| 20260904061503 | 80 | 292 | 10.0 | 20.0 | 0.00 | 0.00 | 0.00 | 37 | 1005.0 |
| 20260904061003 | 80 | 298 | 9.0 | 18.0 | 0.00 | 0.00 | 0.00 | 37 | 1004.9 |
| 20260904060503 | 80 | 303 | 9.0 | 18.0 | 0.00 | 0.00 | 0.00 | 36 | 1004.9 |
| 20260904055502 | 80 | 293 | 9.0 | 17.0 | 0.00 | 0.00 | 0.00 | 37 | 1004.8 |
| 20260904054503 | 80 | 300 | 7.0 | 20.0 | 0.00 | 0.00 | 0.00 | 37 | 1004.8 |
| 20260904054003 | 81 | 292 | 11.0 | 21.0 | 0.00 | 0.00 | 0.00 | 36 | 1004.8 |
| 20260904053004 | 81 | 300 | 10.0 | 20.0 | 0.00 | 0.00 | 0.00 | 36 | 1004.8 |
| 20260904052002 | 81 | 303 | 9.0 | 17.0 | 0.00 | 0.00 | 0.00 | 35 | 1004.9 |
| 20260904051003 | 81 | 306 | 6.0 | 18.0 | 0.00 | 0.00 | 0.00 | 35 | 1004.8 |
| 20260904050503 | 82 | 306 | 7.0 | 17.0 | 0.00 | 0.00 | 0.00 | 34 | 1004.8 |
| 20260904050003 | 82 | 308 | 6.0 | 13.0 | 0.00 | 0.00 | 0.00 | 34 | 1004.9 |
| 20260904045503 | 82 | 305 | 9.0 | 18.0 | 0.00 | 0.00 | 0.00 | 34 | 1004.8 |
| 20260904045002 | 82 | 314 | 6.0 | 14.0 | 0.00 | 0.00 | 0.00 | 34 | 1004.9 |
| 20260904044004 | 82 | 298 | 7.0 | 14.0 | 0.00 | 0.00 | 0.00 | 34 | 1004.9 |
| 20260904043502 | 83 | 297 | 5.0 | 18.0 | 0.00 | 0.00 | 0.00 | 34 | 1004.9 |
| 20260904043003 | 83 | 309 | 5.0 | 12.0 | 0.00 | 0.00 | 0.00 | 34 | 1004.8 |
| 20260904042003 | 83 | 307 | 5.0 | 13.0 | 0.00 | 0.00 | 0.00 | 33 | 1004.9 |
| 20260904041503 | 83 | 314 | 9.0 | 17.0 | 0.00 | 0.00 | 0.00 | 33 | 1004.8 |
| 20260904041003 | 83 | 311 | 7.0 | 14.0 | 0.00 | 0.00 | 0.00 | 33 | 1004.8 |
| 20260904040503 | 83 | 314 | 6.0 | 14.0 | 0.00 | 0.00 | 0.00 | 33 | 1004.8 |
| 20260904040003 | 84 | 299 | 7.0 | 17.0 | 0.00 | 0.00 | 0.00 | 33 | 1004.8 |
| 20260904035503 | 84 | 318 | 5.0 | 17.0 | 0.00 | 0.00 | 0.00 | 33 | 1004.7 |
| 20260904035003 | 84 | 308 | 7.0 | 12.0 | 0.00 | 0.00 | 0.00 | 33 | 1004.7 |
| 20260904034502 | 84 | 315 | 6.0 | 12.0 | 0.00 | 0.00 | 0.00 | 33 | 1004.5 |
| 20260904034003 | 84 | 310 | 5.0 | 13.0 | 0.00 | 0.00 | 0.00 | 33 | 1004.4 |
| 20260904033503 | 84 | 307 | 5.0 | 12.0 | 0.00 | 0.00 | 0.00 | 32 | 1004.4 |
| 20260904033003 | 85 | 307 | 5.0 | 12.0 | 0.00 | 0.00 | 0.00 | 32 | 1004.4 |
| 20260904032502 | 85 | 319 | 5.0 | 16.0 | 0.00 | 0.00 | 0.00 | 32 | 1004.3 |
| 20260904032003 | 85 | 306 | 5.0 | 10.0 | 0.00 | 0.00 | 0.00 | 32 | 1004.3 |
| 20260904031503 | 86 | 313 | 6.0 | 20.0 | 0.00 | 0.00 | 0.00 | 32 | 1004.2 |
| 20260904030004 | 87 | 293 | 10.0 | 23.0 | 0.00 | 0.00 | 0.00 | 31 | 1003.8 |
| 20260904025504 | 87 | 296 | 12.0 | 20.0 | 0.00 | 0.00 | 0.00 | 31 | 1003.8 |
| 20260904024503 | 88 | 307 | 11.0 | 22.0 | 0.00 | 0.00 | 0.00 | 30 | 1003.7 |
| 20260904024003 | 88 | 303 | 10.0 | 21.0 | 0.00 | 0.00 | 0.00 | 31 | 1003.7 |
| 20260904023503 | 88 | 307 | 9.0 | 23.0 | 0.00 | 0.00 | 0.00 | 30 | 1003.7 |
| 20260904023003 | 89 | 301 | 8.0 | 20.0 | 0.00 | 0.00 | 0.00 | 30 | 1003.7 |
| 20260904022503 | 89 | 298 | 11.0 | 23.0 | 0.00 | 0.00 | 0.00 | 29 | 1003.7 |
| 20260904022004 | 89 | 290 | 12.0 | 21.0 | 0.00 | 0.00 | 0.00 | 29 | 1003.7 |
| 20260904021503 | 90 | 293 | 10.0 | 17.0 | 0.00 | 0.00 | 0.00 | 28 | 1003.7 |
| 20260904021002 | 90 | 302 | 7.0 | 17.0 | 0.00 | 0.00 | 0.00 | 28 | 1003.7 |
| 20260904020003 | 91 | 296 | 10.0 | 20.0 | 0.00 | 0.00 | 0.00 | 26 | 1003.7 |
| 20260904015502 | 92 | 293 | 12.0 | 18.0 | 0.00 | 0.00 | 0.00 | 26 | 1003.7 |
| 20260904015003 | 92 | 293 | 8.0 | 17.0 | 0.00 | 0.00 | 0.00 | 24 | 1003.7 |
| 20260904014503 | 93 | 280 | 9.0 | 18.0 | 0.00 | 0.00 | 0.00 | 24 | 1003.7 |
| 20260904014003 | 93 | 296 | 9.0 | 20.0 | 0.00 | 0.00 | 0.00 | 23 | 1003.7 |
| 20260904013503 | 94 | 289 | 9.0 | 18.0 | 0.00 | 0.00 | 0.00 | 22 | 1003.7 |
| 20260904013003 | 94 | 285 | 9.0 | 15.0 | 0.00 | 0.00 | 0.00 | 22 | 1003.7 |
| 20260904012503 | 94 | 295 | 9.0 | 18.0 | 0.00 | 0.00 | 0.00 | 21 | 1003.7 |
| 20260904012003 | 95 | 293 | 7.0 | 14.0 | 0.00 | 0.00 | 0.00 | 21 | 1003.8 |
| 20260904011503 | 95 | 298 | 7.0 | 14.0 | 0.00 | 0.00 | 0.00 | 20 | 1003.7 |
| 20260904011003 | 96 | 297 | 10.0 | 18.0 | 0.00 | 0.00 | 0.00 | 20 | 1003.7 |
| 20260904010502 | 96 | 285 | 6.0 | 14.0 | 0.00 | 0.00 | 0.00 | 18 | 1003.7 |
| 20260904005503 | 97 | 297 | 6.0 | 10.0 | 0.00 | 0.00 | 0.00 | 17 | 1003.7 |
| 20260904004002 | 97 | 299 | 6.0 | 12.0 | 0.00 | 0.00 | 0.00 | 17 | 1003.7 |
| 20260904003504 | 99 | 287 | 5.0 | 12.0 | 0.00 | 0.00 | 0.00 | 15 | 1003.8 |
| 20260904002503 | 99 | 291 | 3.0 | 12.0 | 0.00 | 0.00 | 0.00 | 14 | 1003.8 |
| 20260904002003 | 99 | 312 | 2.0 | 8.0 | 0.00 | 0.00 | 0.00 | 16 | 1003.8 |
| 20260904001503 | 99 | 286 | 6.0 | 10.0 | 0.00 | 0.00 | 0.00 | 14 | 1003.9 |
| 20260904001003 | 98 | 244 | 1.0 | 5.0 | 0.00 | 0.00 | 0.00 | 13 | 1004.0 |
| 20260904000503 | 98 | 187 | 2.0 | 5.0 | 0.00 | 0.00 | 0.00 | 12 | 1004.1 |
| 20260904000003 | 99 | 191 | 2.0 | 3.0 | 0.00 | 0.00 | 0.00 | 12 | 1004.0 |
| 20260903235503 | 99 | 168 | 3.0 | 5.0 | 0.00 | 0.00 | 0.00 | 12 | 1004.1 |
| 20260903234503 | 98 | 153 | 3.0 | 6.0 | 0.00 | 0.00 | 0.00 | 12 | 1004.2 |
| 20260903233503 | 98 | 177 | 1.0 | 3.0 | 0.00 | 0.00 | 0.00 | 13 | 1004.3 |
| 20260903233003 | 99 | 8 | 2.0 | 3.0 | 0.00 | 0.00 | 0.00 | 12 | 1004.4 |
| 20260903232503 | 98 | 84 | 1.0 | 6.0 | 0.00 | 0.00 | 0.00 | 12 | 1004.5 |
| 20260903232003 | 100 | 159 | 4.0 | 7.0 | 0.00 | 0.00 | 0.00 | 12 | 1004.6 |
| 20260903231503 | 99 | 122 | 5.0 | 8.0 | 0.00 | 0.00 | 0.00 | 12 | 1004.7 |
| 20260903231003 | 99 | 32 | 2.0 | 7.0 | 0.00 | 0.00 | 0.00 | 12 | 1004.7 |
| 20260903230503 | 99 | 111 | 1.0 | 5.0 | 0.00 | 0.00 | 0.00 | 13 | 1004.7 |
| 20260903230002 | 100 | 82 | 5.0 | 8.0 | 0.00 | 0.00 | 0.00 | 11 | 1004.8 |
| 20260903225503 | 98 | 99 | 3.0 | 8.0 | 0.00 | 0.00 | 0.00 | 12 | 1004.8 |
| 20260903225003 | 98 | 150 | 3.0 | 7.0 | 0.00 | 0.00 | 0.00 | 12 | 1004.8 |
| 20260903224503 | 99 | 151 | 1.0 | 5.0 | 0.00 | 0.00 | 0.00 | 13 | 1004.8 |
| 20260903224003 | 100 | 62 | 4.0 | 8.0 | 0.00 | 0.00 | 0.00 | 12 | 1004.9 |
| 20260903223503 | 100 | 101 | 5.0 | 9.0 | 0.00 | 0.00 | 0.00 | 14 | 1005.0 |
| 20260903223004 | 99 | 62 | 2.0 | 7.0 | 0.00 | 0.00 | 0.00 | 12 | 1005.2 |
| 20260903222503 | 98 | 225 | 3.0 | 7.0 | 0.00 | 0.00 | 0.00 | 12 | 1005.3 |
| 20260903221004 | 98 | 226 | 3.0 | 6.0 | 0.00 | 0.00 | 0.00 | 13 | 1005.3 |
| 20260903220504 | 97 | 199 | 3.0 | 7.0 | 0.00 | 0.00 | 0.00 | 13 | 1005.4 |
| 20260903220003 | 98 | 110 | 3.0 | 10.0 | 0.00 | 0.00 | 0.00 | 12 | 1005.4 |
| 20260903215503 | 98 | 107 | 6.0 | 10.0 | 0.00 | 0.00 | 0.00 | 13 | 1005.5 |
| 20260903215004 | 98 | 124 | 5.0 | 7.0 | 0.00 | 0.00 | 0.00 | 13 | 1005.6 |
| 20260903214503 | 98 | 121 | 1.0 | 5.0 | 0.00 | 0.00 | 0.00 | 14 | 1005.7 |
| 20260903214003 | 98 | 93 | 6.0 | 13.0 | 0.00 | 0.00 | 0.00 | 12 | 1005.8 |
| 20260903213502 | 97 | 143 | 3.0 | 7.0 | 0.00 | 0.00 | 0.00 | 13 | 1005.8 |
| 20260903213003 | 98 | 170 | 2.0 | 7.0 | 0.00 | 0.00 | 0.00 | 15 | 1005.9 |
| 20260903212503 | 98 | 107 | 5.0 | 10.0 | 0.00 | 0.00 | 0.00 | 14 | 1005.9 |
| 20260903212003 | 98 | 174 | 5.0 | 9.0 | 0.00 | 0.00 | 0.00 | 13 | 1006.0 |
| 20260903211503 | 98 | 99 | 3.0 | 7.0 | 0.00 | 0.00 | 0.00 | 14 | 1006.0 |
| 20260903211003 | 97 | 65 | 0.0 | 3.0 | 0.00 | 0.00 | 0.00 | 13 | 1006.1 |
| 20260903210503 | 97 | 140 | 2.0 | 7.0 | 0.00 | 0.00 | 0.00 | 13 | 1006.1 |
| 20260903210003 | 98 | 97 | 6.0 | 9.0 | 0.00 | 0.00 | 0.00 | 13 | 1006.1 |
| 20260903205503 | 98 | 43 | 5.0 | 8.0 | 0.00 | 0.00 | 0.00 | 14 | 1006.2 |
| 20260903205002 | 97 | 112 | 5.0 | 8.0 | 0.00 | 0.00 | 0.00 | 13 | 1006.3 |
| 20260903204502 | 97 | 127 | 5.0 | 9.0 | 0.00 | 0.00 | 0.00 | 14 | 1006.3 |
| 20260903203502 | 95 | 113 | 3.0 | 7.0 | 0.00 | 0.00 | 0.00 | 13 | 1006.4 |
| 20260903203003 | 95 | 169 | 2.0 | 3.0 | 0.00 | 0.00 | 0.00 | 14 | 1006.4 |
| 20260903202503 | 94 | 272 | 0.0 | 3.0 | 0.00 | 0.00 | 0.00 | 14 | 1006.5 |
| 20260903202003 | 95 | 129 | 3.0 | 8.0 | 0.00 | 0.00 | 0.00 | 13 | 1006.7 |
| 20260903201004 | 95 | 206 | 5.0 | 9.0 | 0.00 | 0.00 | 0.00 | 13 | 1006.8 |
| 20260903200503 | 95 | 149 | 2.0 | 3.0 | 0.00 | 0.00 | 0.00 | 13 | 1006.8 |
| 20260903200004 | 95 | 300 | 1.0 | 6.0 | 0.00 | 0.00 | 0.00 | 17 | 1006.8 |
| 20260903195502 | 94 | 203 | 1.0 | 6.0 | 0.00 | 0.00 | 0.00 | 15 | 1006.9 |
| 20260903194003 | 93 | 214 | 1.0 | 5.0 | 0.00 | 0.00 | 0.00 | 15 | 1007.1 |
| 20260903193503 | 94 | 152 | 3.0 | 7.0 | 0.00 | 0.00 | 0.00 | 15 | 1007.2 |
| 20260903193003 | 93 | 192 | 2.0 | 7.0 | 0.00 | 0.00 | 0.00 | 16 | 1007.3 |
| 20260903192503 | 93 | 132 | 2.0 | 7.0 | 0.00 | 0.00 | 0.00 | 16 | 1007.4 |
| 20260903191504 | 93 | 143 | 4.0 | 7.0 | 0.00 | 0.00 | 0.00 | 17 | 1007.5 |
| 20260903191002 | 92 | 212 | 3.0 | 6.0 | 0.00 | 0.00 | 0.00 | 16 | 1007.7 |
| 20260903190503 | 93 | 102 | 1.0 | 3.0 | 0.00 | 0.00 | 0.00 | 16 | 1007.8 |
| 20260903190004 | 92 | 286 | 3.0 | 5.0 | 0.00 | 0.00 | 0.00 | 19 | 1007.9 |
| 20260903185503 | 92 | 235 | 3.0 | 6.0 | 0.00 | 0.00 | 0.00 | 16 | 1008.0 |
| 20260903185003 | 93 | 240 | 3.0 | 7.0 | 0.00 | 0.00 | 0.00 | 17 | 1008.0 |